Погода в Портленде

США     45°31′09″N   122°40′17″W
темп.,
°C
ветер,
м/с
пор.,
м/с
влажн.,
%
обл.,
%
осадки,
мм/ч
давл.,
гПа
погр.,
м
15 мая, сб
сб1523:00+14сз27635 0.0 1017223
02:00+11с12735 0.0 101890
05:00+9ссв11770 0.0 101863
08:00+12с13640 0.0 1019378
11:00+19с24460 0.0 1018927
14:00+25с35294 0.0 10151575
17:00+26с45255 0.0 10131540
20:00+21сз38495 0.0 1013351
16 мая, вс
вс1623:00+15с12600 0.0 101460
02:00+12с11620 0.0 101524
05:00+10ссв11685 0.0 101622
08:00+13с11585 0.0 1016315
11:00+20сз12452 0.0 1015859
14:00+26ссз24360 0.0 10131917
17:00+25сз55360 0.0 10121742
20:00+19ссз48530 0.0 1013588
17 мая, пн
пн1723:00+13ссз27740 0.0 1016292
02:00+11с118491 0.0 1016111
05:00+10всв00905 0.0 101717
08:00+13зсз017120 0.0 1017545
11:00+18юз225039 0.0 10161242
14:00+22юз3536100 0.0 10141918
17:00+21з6628100 0.0 10131755
20:00+16зюз344548 0.0 1016712
18 мая, вт
вт1823:00+13юз366253 0.0 1018451
02:00+11ююз2672100 0.0 1018362
05:00+9ююз2588100 0.0 1019262
08:00+12з127437 0.1 1020583
11:00+16зюз243584 0.2 10192070
14:00+18зюз4528100 0.0 10172889
17:00+17сз4533100 0.0 10172292
20:00+14зсз3444100 0.0 10181352
19 мая, ср
ср1923:00+10сз2460100 0.0 1019346
02:00+8сз137596 0.0 1019140
05:00+6с118310 0.0 101930
08:00+9с11666 0.0 1019438
11:00+15сз1239100 0.0 10171970
14:00+18сз1328100 0.0 10152607
17:00+14сз453692 0.0 10141717
20:00+13сз464010 0.0 1014965